Location: Edoum�
(0.9447°N, 10.6482°E)
Time: 14:43:46
(UTC+00:00)

NOSS 3-1 (C) - Pass Details

Date: 07 June 2020
Orbit: 752 x 1456 km, 63.4° (Epoch: 15 June)

Event Time Altitude Azimuth Distance (km) Brightness Sun altitude
Rises 03:10:59 0° 328° (NNW) 4,425 6.9 -28.2°
Reaches altitude 10° 03:13:53 10° 324° (NW) 3,503 6.3 -27.6°
Maximum altitude 03:22:29 58° 248° (WSW) 1,654 4.3 -25.7°
Drops below altitude 10° 03:31:09 10° 170° (S) 3,506 6.2 -23.7°
Sets 03:34:04 0° 166° (SSE) 4,429 6.8 -23.0°
